Hourly Weather Klapki

Today, 27 July, Tuesday

Time Temperature Precipitation Wind Pressure Humidity
00:00 +20°C° 0.2 mm 2 mps 746 mmHg 84%
01:00 +19°C° 0.2 mm 2 mps 747 mmHg 90%
02:00 +19°C° 0.4 mm 2 mps 747 mmHg 90%
03:00 +19°C° 0.4 mm 2 mps 747 mmHg 91%
04:00 +19°C° 0.4 mm 2 mps 747 mmHg 92%
05:00 +20°C° 0 mm 2 mps 747 mmHg 88%
06:00 +21°C° 0 mm 3 mps 747 mmHg 84%
07:00 +22°C° 0 mm 3 mps 747 mmHg 80%
08:00 +24°C° 0 mm 3 mps 747 mmHg 72%
09:00 +26°C° 0 mm 3 mps 747 mmHg 63%
10:00 +27°C° 0 mm 3 mps 748 mmHg 55%
11:00 +28°C° 0 mm 3 mps 748 mmHg 51%
12:00 +29°C° 0 mm 4 mps 747 mmHg 47%
13:00 +30°C° 0 mm 4 mps 747 mmHg 43%
14:00 +30°C° 0 mm 4 mps 747 mmHg 41%
15:00 +32°C° 0 mm 4 mps 747 mmHg 39%
16:00 +31°C° 0 mm 3 mps 747 mmHg 37%
17:00 +29°C° 0 mm 3 mps 747 mmHg 43%
18:00 +28°C° 0 mm 2 mps 747 mmHg 49%
19:00 +26°C° 0 mm 2 mps 747 mmHg 56%
20:00 +25°C° 0 mm 1 mps 747 mmHg 57%
21:00 +24°C° 0 mm 1 mps 747 mmHg 58%
22:00 +21°C° 0 mm 0 mps 747 mmHg 59%
23:00 +23°C° 0 mm 1 mps 747 mmHg 60%

Tomorrow, 28 July, Wednesday

Time Temperature Precipitation Wind Pressure Humidity
00:00 +23°C° 0 mm 1 mps 747 mmHg 61%
01:00 +22°C° 0 mm 1 mps 747 mmHg 62%
02:00 +22°C° 0 mm 1 mps 747 mmHg 63%
03:00 +21°C° 0 mm 1 mps 747 mmHg 65%
04:00 +21°C° 0 mm 1 mps 746 mmHg 66%
05:00 +22°C° 0 mm 1 mps 746 mmHg 65%
06:00 +21°C° 0 mm 0 mps 746 mmHg 64%
07:00 +22°C° 0 mm 0 mps 746 mmHg 63%
08:00 +25°C° 0.1 mm 1 mps 747 mmHg 61%
09:00 +26°C° 0.1 mm 2 mps 747 mmHg 59%
10:00 +27°C° 0.1 mm 2 mps 747 mmHg 57%
11:00 +26°C° 0.3 mm 2 mps 747 mmHg 63%
12:00 +24°C° 0.3 mm 3 mps 747 mmHg 69%
13:00 +22°C° 0.3 mm 3 mps 747 mmHg 75%
14:00 +24°C° 0.1 mm 2 mps 746 mmHg 70%
15:00 +25°C° 0.1 mm 2 mps 746 mmHg 65%
16:00 +26°C° 0.1 mm 1 mps 746 mmHg 60%
17:00 +26°C° 0.1 mm 2 mps 746 mmHg 64%
18:00 +25°C° 0.1 mm 2 mps 747 mmHg 67%
19:00 +24°C° 0.1 mm 2 mps 747 mmHg 70%
20:00 +23°C° 0.1 mm 2 mps 747 mmHg 75%
21:00 +21°C° 0.1 mm 2 mps 747 mmHg 80%
22:00 +20°C° 0.1 mm 2 mps 747 mmHg 84%
23:00 +19°C° 0 mm 2 mps 747 mmHg 85%

Day after tomorrow, 29 July, Thursday

Time Temperature Precipitation Wind Pressure Humidity
00:00 +19°C° 0 mm 3 mps 747 mmHg 86%
01:00 +18°C° 0 mm 3 mps 747 mmHg 87%
02:00 +18°C° 0 mm 3 mps 747 mmHg 87%
03:00 +17°C° 0 mm 3 mps 747 mmHg 88%
04:00 +17°C° 0 mm 3 mps 748 mmHg 89%
05:00 +18°C° 0 mm 3 mps 748 mmHg 83%
06:00 +20°C° 0 mm 3 mps 747 mmHg 76%
07:00 +21°C° 0 mm 3 mps 747 mmHg 70%
08:00 +24°C° 0 mm 3 mps 747 mmHg 64%
09:00 +25°C° 0 mm 4 mps 747 mmHg 57%
10:00 +27°C° 0 mm 4 mps 747 mmHg 50%
11:00 +27°C° 0 mm 4 mps 747 mmHg 48%
12:00 +28°C° 0 mm 4 mps 747 mmHg 46%
13:00 +28°C° 0 mm 4 mps 747 mmHg 44%
14:00 +29°C° 0 mm 4 mps 746 mmHg 42%
15:00 +29°C° 0 mm 4 mps 746 mmHg 40%
16:00 +29°C° 0 mm 5 mps 746 mmHg 38%
17:00 +28°C° 0 mm 3 mps 746 mmHg 43%
18:00 +26°C° 0 mm 2 mps 746 mmHg 48%
19:00 +25°C° 0 mm 1 mps 746 mmHg 53%
20:00 +24°C° 0 mm 1 mps 746 mmHg 54%
21:00 +23°C° 0 mm 1 mps 745 mmHg 55%
22:00 +21°C° 0 mm 2 mps 745 mmHg 57%
23:00 +21°C° 0 mm 2 mps 745 mmHg 60%

30 July, Friday

Time Temperature Precipitation Wind Pressure Humidity
00:00 +20°C° 0 mm 2 mps 745 mmHg 64%
01:00 +20°C° 0 mm 3 mps 745 mmHg 67%
02:00 +20°C° 0 mm 3 mps 745 mmHg 69%
03:00 +20°C° 0 mm 3 mps 745 mmHg 70%
04:00 +20°C° 0 mm 3 mps 745 mmHg 71%
05:00 +20°C° 0.1 mm 3 mps 745 mmHg 72%
06:00 +20°C° 0.1 mm 3 mps 745 mmHg 72%
07:00 +20°C° 0.1 mm 3 mps 745 mmHg 73%
08:00 +21°C° 0 mm 3 mps 745 mmHg 66%
09:00 +23°C° 0 mm 4 mps 745 mmHg 59%
10:00 +25°C° 0 mm 4 mps 745 mmHg 52%
11:00 +26°C° 0 mm 5 mps 745 mmHg 48%
12:00 +27°C° 0 mm 5 mps 745 mmHg 44%
13:00 +28°C° 0 mm 5 mps 744 mmHg 41%
14:00 +27°C° 0 mm 5 mps 744 mmHg 40%
15:00 +27°C° 0 mm 6 mps 744 mmHg 39%
16:00 +27°C° 0 mm 6 mps 744 mmHg 38%
17:00 +25°C° 0 mm 5 mps 744 mmHg 43%
18:00 +23°C° 0 mm 4 mps 744 mmHg 47%
19:00 +22°C° 0 mm 3 mps 744 mmHg 51%
20:00 +21°C° 0 mm 3 mps 744 mmHg 53%
21:00 +19°C° 0 mm 3 mps 745 mmHg 54%
22:00 +18°C° 0 mm 3 mps 745 mmHg 56%
23:00 +18°C° 0 mm 2 mps 745 mmHg 58%

31 July, Saturday

Time Temperature Precipitation Wind Pressure Humidity
00:00 +17°C° 0 mm 2 mps 745 mmHg 60%
01:00 +16°C° 0 mm 2 mps 745 mmHg 62%
02:00 +16°C° 0 mm 2 mps 745 mmHg 64%
03:00 +15°C° 0 mm 2 mps 745 mmHg 67%
04:00 +15°C° 0 mm 2 mps 745 mmHg 70%
05:00 +16°C° 0 mm 2 mps 745 mmHg 67%
06:00 +18°C° 0 mm 3 mps 746 mmHg 64%
07:00 +19°C° 0 mm 3 mps 746 mmHg 61%
08:00 +21°C° 0 mm 3 mps 746 mmHg 55%
09:00 +22°C° 0 mm 3 mps 746 mmHg 50%
10:00 +25°C° 0 mm 4 mps 746 mmHg 44%
11:00 +26°C° 0 mm 4 mps 745 mmHg 40%
12:00 +27°C° 0 mm 4 mps 745 mmHg 37%
13:00 +27°C° 0 mm 4 mps 745 mmHg 34%
14:00 +28°C° 0 mm 4 mps 745 mmHg 33%
15:00 +28°C° 0 mm 4 mps 744 mmHg 33%
16:00 +28°C° 0 mm 4 mps 744 mmHg 33%
17:00 +27°C° 0 mm 3 mps 744 mmHg 38%
18:00 +26°C° 0 mm 2 mps 744 mmHg 44%
19:00 +24°C° 0 mm 1 mps 744 mmHg 50%
20:00 +23°C° 0 mm 1 mps 744 mmHg 51%
21:00 +22°C° 0 mm 1 mps 744 mmHg 53%
22:00 +21°C° 0 mm 1 mps 744 mmHg 54%
23:00 +21°C° 0 mm 1 mps 744 mmHg 53%

1 August, Sunday

Time Temperature Precipitation Wind Pressure Humidity
00:00 +21°C° 0 mm 1 mps 744 mmHg 53%
01:00 +21°C° 0 mm 1 mps 743 mmHg 52%
02:00 +21°C° 0 mm 1 mps 743 mmHg 54%
03:00 +21°C° 0 mm 1 mps 743 mmHg 56%
04:00 +20°C° 0 mm 1 mps 742 mmHg 58%
05:00 +20°C° 0.4 mm 1 mps 742 mmHg 66%
06:00 +18°C° 0.4 mm 2 mps 742 mmHg 74%
07:00 +18°C° 0.4 mm 2 mps 742 mmHg 81%
08:00 +17°C° 2.5 mm 3 mps 741 mmHg 85%
09:00 +17°C° 2.5 mm 3 mps 741 mmHg 89%
10:00 +15°C° 2.5 mm 4 mps 741 mmHg 93%
11:00 +15°C° 1.9 mm 4 mps 741 mmHg 93%
12:00 +15°C° 1.9 mm 4 mps 741 mmHg 93%
13:00 +15°C° 1.9 mm 4 mps 741 mmHg 94%
14:00 +15°C° 0.2 mm 4 mps 741 mmHg 94%
15:00 +15°C° 0.2 mm 5 mps 741 mmHg 93%
16:00 +15°C° 0.2 mm 5 mps 741 mmHg 93%
17:00 +15°C° 0 mm 4 mps 741 mmHg 92%
18:00 +15°C° 0 mm 4 mps 742 mmHg 91%
19:00 +16°C° 0 mm 3 mps 742 mmHg 90%
20:00 +15°C° 0 mm 4 mps 742 mmHg 90%
21:00 +15°C° 0 mm 4 mps 742 mmHg 91%
22:00 +15°C° 0 mm 4 mps 742 mmHg 92%
23:00 +15°C° 1.4 mm 4 mps 742 mmHg 93%
Show more